This is the latest recevied weather packets stored in our database for station/object KB9PMA-1. If no packets are shown the sender has not sent any weather packets the latest 10 day(s).
| Time | Temp. | Humidity | Pressure | Rain* | Wind** | Luminosity | Snow |
|---|---|---|---|---|---|---|---|
| 1778192270 | 13.89° C | 52% | 1014.8 hPa | 0 mm | - | - | - |
| 1778191970 | 13.89° C | 51% | 1014.7 hPa | 0 mm | - | - | - |
| 1778191670 | 14.44° C | 49% | 1014.6 hPa | 0 mm | - | - | - |
| 1778191370 | 14.44° C | 51% | 1014.5 hPa | 0 mm | - | - | - |
| 1778191071 | 14.44° C | 48% | 1014.5 hPa | 0 mm | - | - | - |
| 1778190770 | 14.44° C | 47% | 1014.4 hPa | 0 mm | - | - | - |
| 1778190471 | 15° C | 47% | 1014.3 hPa | 0 mm | - | - | - |
| 1778190170 | 14.44° C | 48% | 1014.2 hPa | 0 mm | - | - | - |
| 1778189870 | 14.44° C | 49% | 1014.1 hPa | 0 mm | - | - | - |
| 1778189570 | 14.44° C | 49% | 1014.1 hPa | 0 mm | - | - | - |
| 1778189271 | 14.44° C | 49% | 1014.1 hPa | 0 mm | - | - | - |
| 1778188970 | 14.44° C | 49% | 1014.3 hPa | 0 mm | - | - | - |
| 1778188671 | 14.44° C | 48% | 1014.3 hPa | 0 mm | - | - | - |
| 1778188370 | 14.44° C | 44% | 1014.2 hPa | 0 mm | - | - | - |
| 1778188070 | 14.44° C | 46% | 1014.3 hPa | 0 mm | - | - | - |
| 1778187770 | 14.44° C | 44% | 1014.2 hPa | 0 mm | - | - | - |
| 1778187471 | 15° C | 45% | 1014.2 hPa | 0 mm | - | - | - |
| 1778187170 | 15° C | 44% | 1014.2 hPa | 0 mm | - | - | - |
| 1778186871 | 15° C | 44% | 1014.3 hPa | 0 mm | - | - | - |
| 1778186571 | 15° C | 42% | 1014.2 hPa | 0 mm | - | - | - |
| 1778186270 | 15.56° C | 41% | 1014.3 hPa | 0 mm | - | - | - |
| 1778185971 | 15.56° C | 42% | 1014.3 hPa | 0 mm | - | - | - |
| 1778185671 | 15.56° C | 43% | 1014.3 hPa | 0 mm | - | - | - |
| 1778185371 | 15.56° C | 41% | 1014.3 hPa | 0 mm | - | - | - |
| 1778185071 | 16.11° C | 44% | 1014.5 hPa | 0 mm | - | - | - |
* Rain latest hour (hover to see other rain measurements)
** Current wind speed in m/s (hover to see current wind gust speed)